Location: Ferchesar
(52.6477°N, 12.4298°E)
Time: 04:04:21
(UTC+01:00)

Vanguard 1 - Pass Details

Date: 11 December 2021
Orbit: 652 x 3830 km, 34.2° (Epoch: 21 January)

Event Time Altitude Azimuth Distance (km) Brightness Sun altitude
Exits shadow 04:21:13 28° 221° (SW) 5,169 13.3 -33.5°
Maximum altitude 04:21:54 29° 218° (SW) 5,135 13.3 -33.4°
Drops below altitude 10° 04:35:58 10° 168° (SSE) 5,563 14.0 -31.3°
Sets 04:40:27 0° 157° (SSE) 6,139 14.4 -30.6°
